Weather History for CWWF - September, 2013

Change the Weather History Date:

Tuesday, September 17, 2013

  Actual Average Record
Temperature  
Mean Temperature 69 °F -  
Max Temperature 85 °F - - ()
Min Temperature 53 °F - - ()
Cooling Degree Days 4    
Growing Degree Days 19 (Base 50)    
Moisture  
Dew Point 49 °F    
Average Humidity 57    
Maximum Humidity 92    
Minimum Humidity 20    
Precipitation  
Precipitation 0.00 in - - ()
Sea Level Pressure  
Sea Level Pressure 29.68 in    
Wind  
Wind Speed 8 mph ()    
Max Wind Speed 13 mph    
Max Gust Speed -    
T = Trace of Precipitation, MM = Missing Value Source: Averaged Metar Reports

Daily Weather History Graph

Daily Weather History Graph

Search for Another Location

Airport or City:

Trip Planner

Search our weather history database for the weather conditions in past years. The results will help you decide how hot, cold, wet, or windy it might be!

Date:

Astronomy

Sep. 17, 2013 Rise Set
Actual Time 6:34 AM CST 7:03 PM CST
Civil Twilight 6:02 AM CST 7:35 PM CST
Nautical Twilight 5:24 AM CST 8:13 PM CST
Astronomical Twilight 4:44 AM CST 8:53 PM CST
Moon 5:56 PM CST (9/17) 4:24 AM CST (9/17)
Length of Visible Light 13h 33m
Length of Day
12h 28m
Waxing Gibbous, 96% of the Moon is Illuminated
Sep 17
Waxing Gibbous
Sep 19
Full
Sep 26
Last Quarter
Oct 4
New
Oct 11
First Quarter

Hourly Weather History & Observations

Time (CST) Temp. Dew Point Humidity Pressure Visibility Wind Dir Wind Speed Gust Speed Precip Events Conditions
12:00 AM 60 °F 53 °F 72% 29.74 in - SE 12.7 mph - -  
12:00 AM 60.1 °F 53.2 °F 78% 29.74 in - SE 12.7 mph - N/A   Unknown
1:00 AM 59.0 °F 52.7 °F 80% 29.73 in - SSE 12.7 mph - N/A   Unknown
2:00 AM 57.6 °F 52.5 °F 83% 29.71 in - SE 12.7 mph - N/A   Unknown
3:00 AM 56.1 °F 52.2 °F 87% 29.70 in - SE 11.5 mph - N/A   Unknown
4:00 AM 55.0 °F 52.0 °F 89% 29.70 in - SE 10.4 mph - N/A   Unknown
5:00 AM 54.9 °F 52.0 °F 90% 29.70 in - SE 11.5 mph - N/A   Unknown
6:00 AM 54 °F 52 °F 90% 29.71 in - SE 10.4 mph - -  
6:00 AM 54.3 °F 52.0 °F 92% 29.71 in - SE 10.4 mph - N/A   Unknown
7:00 AM 54.1 °F 51.8 °F 92% 29.70 in - SE 9.2 mph - N/A   Unknown
8:00 AM 57.6 °F 53.1 °F 85% 29.69 in - SSE 10.4 mph - N/A   Unknown
9:00 AM 62.4 °F 54.7 °F 76% 29.69 in - South 8.1 mph - N/A   Unknown
10:00 AM 67.8 °F 54.9 °F 63% 29.69 in - SSW 4.6 mph - N/A   Unknown
11:00 AM 73.8 °F 52.0 °F 46% 29.68 in - West 4.6 mph - N/A   Unknown
12:00 PM 78 °F 49 °F 25% 29.67 in - NNW 4.6 mph - -  
12:00 PM 78.3 °F 48.6 °F 35% 29.67 in - NNW 4.6 mph - N/A   Unknown
1:00 PM 82.0 °F 47.7 °F 30% 29.66 in - NW 6.9 mph - N/A   Unknown
2:00 PM 83.5 °F 44.6 °F 25% 29.66 in - West 5.8 mph - N/A   Unknown
3:00 PM 84.9 °F 39.6 °F 20% 29.64 in - West 9.2 mph - N/A   Unknown
4:00 PM 83.5 °F 40.5 °F 22% 29.64 in - WNW 8.1 mph - N/A   Unknown
5:00 PM 80.8 °F 41.7 °F 25% 29.65 in - West 4.6 mph - N/A   Unknown
6:00 PM 79 °F 46 °F 21% 29.65 in - WSW 3.5 mph - -  
6:00 PM 79.3 °F 46.2 °F 31% 29.65 in - WSW 3.5 mph - N/A   Unknown
7:00 PM 72.5 °F 42.6 °F 34% 29.65 in - West 2.3 mph - N/A   Unknown
8:00 PM 64.6 °F 42.4 °F 44% 29.65 in - North 6.9 mph - N/A   Unknown
9:00 PM 64.0 °F 44.6 °F 49% 29.65 in - ENE 3.5 mph - N/A   Unknown
10:00 PM 63.7 °F 45.1 °F 51% 29.62 in - NE 9.2 mph - N/A   Unknown
11:00 PM 63.7 °F 46.0 °F 53% 29.63 in - NE 6.9 mph - N/A   Unknown